DELTA 1 DEB, 7020

Orbit data source: Space-Track

DELTA 1 DEB, 7020 is space debris in SSO originally from a launch on Tue, 06 Nov 1973 UTC launched from the Air Force Western Test Range (AFWTR). Debris objects in space refer to the collection of defunct objects orbiting the Earth. Examples of debris include non-operational satellites, rocket bodies, and fragments generated from explosions, collisions, or faulty payload assembly.

Loading next visibility...
Identifier
7020, 1973-086L
Orbit
SSO
Country
Flag of USUS
Related business
Manufacturer
Unknown
Mission
Spacecraft
Bus & Motor
Unknown
Mass
Unknown
Launch date (UTC)
1973-11-06 (53 years ago)
Launch vehicle
Unknown
Launch site
Air Force Western Test Range (AFWTR)
Object type
Payload
Rocket body
Debris
Shape & HBR
Unknown shape, 0.1 m
Radar Cross Section
Medium (>0.1 m² and <1 m²)

Expand to show TLE details & history
Last TLE update: 18 hours ago

TLE from 18 hours ago
0 DELTA 1 DEB
1 07020U 73086L   26206.65357613 -.00000331  00000-0 -28626-2 0  9990
2 07020 102.1927 274.3773 0157882 359.0836 154.8681 12.14894045336330
Epoch: 2026-07-25T15:41Z
TLE epoch observation values (Epoch: 2026-07-25T15:41:08.977Z)
Latitude
24.71047°
Longitude
-78.59367°
Altitude
1,732.109 km
Speed
6.963 km/s
True Right ascension
06h 40m 13s
True Declination
24° 35' 45"
Sunlit
Object was in daylight at epoch
Visualization orbit readout
Latitude
Unknown
Longitude
Unknown
Altitude
Unknown
Speed
Unknown
Apparent Right ascension
Unknown
Apparent Declination
Unknown
Sunlit
N/A
Visualization observer readout
Local Sidereal Time
23:18:14
Azimuth
Unknown
Elevation
Unknown
Doppler factor
Unknown
Orbital elements
Apogee altitude
1,738.634 km
Perigee altitude
1,486.319 km
Semi-major axis
7,990.614 km
Eccentricity
0.01579
Inclination
102.1927°
RAAN
274.3773°
Arg. of periapsis
359.0836°
True anomaly
155.62295°
Mean anomaly
154.8681°
Eccentric anomaly
155.24686°
Mean motion
3.0386 °/min
Orbital period
118.48 mins
BSTAR
-0.0028626
Loading maneuver chart data...
Computing Atmospheric mass density...
Loading historical data...
Loading historical data...
Loading historical data...
Loading historical data...
Loading historical data...
Loading historical data...
Loading historical data...

Documentation

Showing up to 5 results
|